LEMUR-2-ELEONORE

Last updated on Wed Aug 05 2026 00:02:05 GMT+0000 (Coordinated Universal Time)

1 69940U 26156BZ 26215.96174832 .00001228 00000+0 12455-3 0 9996 2 69940 97.7536 116.0053 0011895 67.7763 292.4716 14.92635556 4127
UTC large
Height (km)
Speed (km/s)
/
Latitude / Longitude
Inclination (degrees)
Orbital Period (minutes)
Azimuth
Elevation
Range (km)
Doppler Factor

Next 0 passes for location: London (51.5072 / 0.1276)

No passes found over London.
LEMUR-2-ELEONORE